THORAD AGENA D DEB

Satellite information

Favourite Embed

Satellite Type and Status

DEBRISIN ORBIT

Key statistics

Satellite THORAD AGENA D DEB at a glance.

Uptime

20288

Days in orbit

Revolutions

≈ 14.5

Per day

Orbit

SSO

Sun Synchronous Orbit

Inclination

99.7

Latest

Satellite identification and parameters

Extended collection of information and parameters for THORAD AGENA D DEB.

Object identification

Identified? True

Debris? True

Object name: THORAD AGENA D DEB

International designator: 1970-025FT

Object number (NORAD): 4921

Object ID (CCSDS): 4921

Country: UNITED STATES OF AMERICA (US)

Current information (Y/N): Y

RCS size: SMALL

Orbital parameters

Period: 99.24 minutes

Inclination: 99.7242 deg

SMA: 7100.444 km

Apoapsis: 750.315 km

Periapsis: 694.302 km

RAAN: 67.892 deg

Eccentricy: 0.0039443

Argument of periapsis: 63.0738 deg

Mean anomaly: 297.4474 deg

Mean motion: 14.51023827 rev/day

Mean motion (dot): 0.00009593 rev/day2

B* drag term: 0.0024113 1/REarth

Two-line elements (TLE)

Creation date: Oct. 23, 2025, 10:06 p.m.

Reference frame: TEME

Reference center: EARTH

Epoch: Oct. 23, 2025, 8:12 a.m. UTC

TLE line 0: 0 THORAD AGENA D DEB

TLE line 1: 1 4921U 70025FT 25296.34220234 .00009593 00000-0 24113-2 0 9993

TLE line 2: 2 4921 99.7242 67.8920 0039443 63.0738 297.4474 14.51023827841185

Live tracking on map

Real-time ground track for satellite THORAD AGENA D DEB.

In-orbit conjunctions

A list of the most updated potential collisions computed for object THORAD AGENA D DEB.

Target Orbit TCA Probability of collision Miss distance Type
CZ-6A DEB LEO 2025-06-29 16:42:52 0.0004590566 118.0 (m) DEBRIS
CZ-6A DEB LEO 2025-05-09 00:43:46 0.000104849 193.0 (m) DEBRIS
TIROS 3 LEO 2025-02-27 09:01:58 0.0001014383 564.0 (m) PAYLOAD

Associated space launch

Meteorological research and development satellite

THORAD AGENA D DEB was lifted into orbit during the mission ‘Thorad SLV-2G Agena D | Nimbus 4’, on board a Thorad SLV-2G Agena D space rocket.

The launch took place on April 8, 1970, 8:17 a.m. from Space Launch Complex 2E.

For more information about the launch, click the button.

Launch to space Thorad SLV-2G Agena D | Nimbus 4
Thorad SLV-2G Agena D | Nimbus 4

Agency: N/A

Status: Launch Successful

Launch date: April 8, 1970, 8:17 a.m. UTC

Rocket: Thorad SLV-2G Agena D

Launch pad: Space Launch Complex 2E

Location: Vandenberg SFB, CA, USA

...

Latest news about this satellite

There are no fresh news available about this satellite. Check back as we update our databases every day.


Newsletter sign-up

Weekly statistics, charts and insights to help you stay on top of the space industry.